CES7866 ZYHB-ZJSY

Flight info

Callsign CES7866
Flight time N/A
Altitude 36100
Route LEGAG W204 RUSBO G212 VYK W37 IPNIT W4 WXI V54 DOSKU W56 UPMAT W82 GOSMA R343 ENKUS W120 IVPUB W159 BHY W70 NYB G221 UPRIS
Aircraft B738/L-SDE3FGHIRWY/LB1

Departure

Time 2026-05-04 07:08
Airport Harbin Taiping International Airport (ZYHB)

Arrival

Time N/A
Airport Sanya Phoenix International Airport (ZJSY)
Time Latitude Longitude Altitude Speed Heading
2026-05-04 06:38 45.61530 126.23325 509 ft 0 kts 359°
2026-05-04 06:55 45.61517 126.23325 509 ft 2 kts
2026-05-04 06:55 45.61503 126.23325 509 ft 2 kts 358°
2026-05-04 06:55 45.61488 126.23325 509 ft 1 kts 360°
2026-05-04 06:56 45.61478 126.23326 509 ft 2 kts 348°
2026-05-04 06:57 45.61467 126.23417 509 ft 0 kts 218°
2026-05-04 06:59 45.61467 126.23416 509 ft 0 kts 218°
2026-05-04 06:59 45.61459 126.23407 509 ft 2 kts 219°
2026-05-04 06:59 45.61443 126.23389 509 ft 3 kts 219°
2026-05-04 07:01 45.61218 126.23127 509 ft 11 kts 216°
2026-05-04 07:01 45.61150 126.23050 509 ft 13 kts 219°
2026-05-04 07:02 45.61073 126.22961 509 ft 13 kts 219°
2026-05-04 07:02 45.61002 126.22876 509 ft 12 kts 218°
2026-05-04 07:02 45.60933 126.22797 509 ft 12 kts 220°
2026-05-04 07:02 45.60857 126.22757 509 ft 12 kts 157°
2026-05-04 07:03 45.60797 126.22848 509 ft 12 kts 129°
2026-05-04 07:03 45.60739 126.22947 509 ft 13 kts 129°
2026-05-04 07:03 45.60681 126.23048 509 ft 13 kts 129°
2026-05-04 07:03 45.60621 126.23154 509 ft 14 kts 129°
2026-05-04 07:04 45.60557 126.23264 509 ft 14 kts 129°
2026-05-04 07:04 45.60494 126.23374 509 ft 14 kts 129°
2026-05-04 07:04 45.60429 126.23486 509 ft 14 kts 129°
2026-05-04 07:04 45.60370 126.23577 509 ft 10 kts 131°
2026-05-04 07:05 45.60326 126.23653 509 ft 9 kts 129°
2026-05-04 07:05 45.60294 126.23711 509 ft 0 kts 129°
2026-05-04 07:06 45.60280 126.23735 509 ft 4 kts 129°
2026-05-04 07:06 45.60252 126.23779 509 ft 6 kts 144°
2026-05-04 07:06 45.60204 126.23784 509 ft 7 kts 207°
2026-05-04 07:07 45.60166 126.23734 509 ft 8 kts 223°
2026-05-04 07:08 45.55708 126.18413 3381 ft 208 kts 223°
2026-05-04 07:09 45.54542 126.17036 3988 ft 230 kts 222°
2026-05-04 07:09 45.53255 126.15533 4601 ft 251 kts 222°
2026-05-04 07:09 45.51894 126.13927 5428 ft 261 kts 223°
2026-05-04 07:09 45.50558 126.12155 6364 ft 266 kts 227°
2026-05-04 07:10 45.49247 126.10308 7331 ft 270 kts 227°
2026-05-04 07:10 45.47892 126.08450 8279 ft 274 kts 226°
2026-05-04 07:12 45.38409 125.91879 11621 ft 386 kts 237°
2026-05-04 07:12 45.36782 125.88777 12166 ft 397 kts 238°
2026-05-04 07:12 45.35102 125.85594 12774 ft 404 kts 238°
2026-05-04 07:12 45.33426 125.82413 13450 ft 410 kts 238°
2026-05-04 07:13 45.31690 125.79115 14086 ft 416 kts 239°
2026-05-04 07:13 45.29985 125.75861 14811 ft 418 kts 239°
2026-05-04 07:13 45.28227 125.72501 15507 ft 422 kts 239°
2026-05-04 07:14 45.21112 125.58961 17927 ft 439 kts 240°
2026-05-04 07:14 45.19273 125.55482 18524 ft 442 kts 239°
2026-05-04 07:15 45.17430 125.51988 19117 ft 445 kts 239°
2026-05-04 07:15 45.15560 125.48439 19614 ft 450 kts 239°
2026-05-04 07:15 45.13676 125.44878 20127 ft 454 kts 239°
2026-05-04 07:15 45.11783 125.41311 20666 ft 457 kts 239°
2026-05-04 07:16 45.09868 125.37713 21150 ft 461 kts 239°
2026-05-04 07:16 45.07955 125.34117 21619 ft 465 kts 238°
2026-05-04 07:16 45.05985 125.30422 22073 ft 469 kts 238°
2026-05-04 07:16 45.04038 125.26769 22582 ft 471 kts 238°
2026-05-04 07:17 45.02087 125.23045 23006 ft 473 kts 240°
2026-05-04 07:17 45.00202 125.19238 23469 ft 475 kts 240°
2026-05-04 07:17 44.98306 125.15368 23923 ft 478 kts 240°
2026-05-04 07:17 44.96422 125.11564 24391 ft 480 kts 240°
2026-05-04 07:18 44.94493 125.07690 24772 ft 484 kts 240°
2026-05-04 07:18 44.92562 125.03816 25215 ft 486 kts 240°
2026-05-04 07:18 44.90611 124.99902 25633 ft 488 kts 240°
2026-05-04 07:18 44.88963 124.96610 26076 ft 487 kts 240°
2026-05-04 07:19 44.87026 124.92733 26419 ft 489 kts 241°
2026-05-04 07:19 44.85058 124.88811 26899 ft 489 kts 240°
2026-05-04 07:19 44.83089 124.84895 27357 ft 489 kts 241°
2026-05-04 07:19 44.81153 124.81048 27831 ft 488 kts 241°
2026-05-04 07:20 44.79172 124.77115 28307 ft 487 kts 241°
2026-05-04 07:20 44.77218 124.73254 28802 ft 486 kts 241°
2026-05-04 07:20 44.75281 124.69428 29211 ft 486 kts 241°
2026-05-04 07:20 44.73321 124.65547 29621 ft 485 kts 241°
2026-05-04 07:22 44.59888 124.38776 32551 ft 471 kts 250°
2026-05-04 07:22 44.58572 124.34718 32976 ft 460 kts 256°
2026-05-04 07:23 44.57598 124.30463 33358 ft 452 kts 264°
2026-05-04 07:23 44.57109 124.26181 33800 ft 442 kts 271°
2026-05-04 07:23 44.56821 124.21945 34217 ft 439 kts 271°
2026-05-04 07:23 44.56441 124.17683 34549 ft 444 kts 266°
2026-05-04 07:24 44.55677 124.13487 34955 ft 449 kts 259°
2026-05-04 07:24 44.54477 124.09418 35250 ft 458 kts 250°
2026-05-04 07:24 44.52803 124.05660 35475 ft 466 kts 242°
2026-05-04 07:24 44.50856 124.01994 35683 ft 466 kts 240°
2026-05-04 07:26 44.35887 123.73058 35723 ft 457 kts 242°
2026-05-04 07:27 44.32184 123.65897 35717 ft 458 kts 242°
2026-05-04 07:27 44.28426 123.58646 35721 ft 462 kts 242°
2026-05-04 07:28 44.24668 123.51416 35712 ft 461 kts 242°
2026-05-04 07:28 44.20927 123.44236 35709 ft 457 kts 242°
2026-05-04 07:29 44.17198 123.37099 35716 ft 459 kts 242°
2026-05-04 07:29 44.13440 123.29929 35714 ft 460 kts 241°
2026-05-04 07:30 44.09686 123.22775 35715 ft 459 kts 240°
2026-05-04 07:30 44.05914 123.15610 35717 ft 461 kts 240°
2026-05-04 07:31 44.02142 123.08478 35704 ft 459 kts 240°
2026-05-04 07:33 43.87203 122.79874 35709 ft 456 kts 242°
2026-05-04 07:33 43.83521 122.72701 35728 ft 459 kts 242°
2026-05-04 07:34 43.79808 122.65494 35711 ft 460 kts 242°
2026-05-04 07:34 43.76122 122.58359 35720 ft 457 kts 242°
2026-05-04 07:35 43.72427 122.51220 35727 ft 459 kts 242°
2026-05-04 07:35 43.68698 122.44037 35729 ft 461 kts 242°
2026-05-04 07:36 43.64986 122.36910 35719 ft 458 kts 242°
2026-05-04 07:38 43.50549 122.09162 35743 ft 459 kts 241°
2026-05-04 07:38 43.46837 122.02000 35740 ft 461 kts 241°
2026-05-04 07:39 43.43102 121.94813 35752 ft 461 kts 241°
2026-05-04 07:39 43.39404 121.87701 35751 ft 459 kts 241°
2026-05-04 07:40 43.35703 121.80615 35752 ft 458 kts 241°
2026-05-04 07:40 43.31985 121.73492 35761 ft 461 kts 241°
2026-05-04 07:41 43.28248 121.66373 35766 ft 460 kts 240°
2026-05-04 07:41 43.24519 121.59293 35759 ft 458 kts 241°
2026-05-04 07:42 43.20795 121.52218 35768 ft 459 kts 241°
2026-05-04 07:42 43.17065 121.45151 35761 ft 460 kts 240°
2026-05-04 07:43 43.13312 121.38063 35772 ft 461 kts 240°
2026-05-04 07:43 43.09552 121.30977 35773 ft 462 kts 240°
2026-05-04 07:44 43.05786 121.23905 35775 ft 459 kts 240°
2026-05-04 07:44 43.02043 121.16885 35774 ft 460 kts 240°
2026-05-04 07:45 42.98266 121.09817 35782 ft 462 kts 240°
2026-05-04 07:45 42.94756 121.03259 35776 ft 462 kts 239°
2026-05-04 07:46 42.90974 120.96226 35780 ft 459 kts 239°
2026-05-04 07:46 42.87197 120.89211 35804 ft 460 kts 239°
2026-05-04 07:47 42.83414 120.82197 35811 ft 461 kts 239°
2026-05-04 07:49 42.68264 120.54288 35821 ft 460 kts 239°
2026-05-04 07:49 42.64470 120.47339 35828 ft 460 kts 239°
2026-05-04 07:50 42.60656 120.40364 35833 ft 461 kts 239°
2026-05-04 07:50 42.56842 120.33419 35830 ft 462 kts 238°
2026-05-04 07:51 42.52999 120.26436 35833 ft 460 kts 238°
2026-05-04 07:51 42.49181 120.19504 35838 ft 460 kts 238°
2026-05-04 07:52 42.45365 120.12588 35845 ft 460 kts 238°
2026-05-04 07:52 42.41542 120.05671 35860 ft 460 kts 238°
2026-05-04 07:54 42.26215 119.78160 35892 ft 460 kts 238°
2026-05-04 07:55 42.22380 119.71315 35886 ft 458 kts 238°
2026-05-04 07:55 42.18543 119.64480 35899 ft 459 kts 238°
2026-05-04 07:56 42.14695 119.57639 35913 ft 459 kts 238°
2026-05-04 07:56 42.10856 119.50823 35905 ft 459 kts 238°
2026-05-04 07:57 42.06985 119.43980 35902 ft 459 kts 238°
2026-05-04 07:57 42.03110 119.37152 35893 ft 458 kts 238°
2026-05-04 07:58 42.00041 119.31741 35902 ft 459 kts 237°
2026-05-04 07:58 41.96175 119.24946 35897 ft 459 kts 237°
2026-05-04 07:59 41.92288 119.18120 35901 ft 459 kts 237°
2026-05-04 07:59 41.88501 119.11481 35906 ft 459 kts 237°
2026-05-04 08:00 41.84619 119.04709 35908 ft 459 kts 237°
2026-05-04 08:02 41.69098 118.77751 35958 ft 458 kts 237°
2026-05-04 08:02 41.65204 118.71027 35963 ft 459 kts 237°
2026-05-04 08:03 41.61334 118.64366 35967 ft 458 kts 237°
2026-05-04 08:03 41.57439 118.57659 35971 ft 459 kts 237°
2026-05-04 08:04 41.53527 118.50948 35977 ft 458 kts 237°
2026-05-04 08:04 41.49674 118.44251 35980 ft 456 kts 240°
2026-05-04 08:05 41.46368 118.37118 35983 ft 454 kts 244°